Back to catalog

STARLINK-32670

AliveCommunicationsVLEO
NORAD 62210·PAYLOAD·🇺🇸 United States

Launched Dec 4, 2024 from Cape Canaveral Space Force Station

Loading…

Next Passes (next 24 hours)

TLE

FreshSource: CelesTrak SupGP

Epoch: Sep 15, 2026, 03:11 UTC

1 62210C 24229U   26258.13312500 -.00005832  00000+0 -21120-3 0  2584
2 62210  43.0025 280.6988 0001362 272.5426 169.1718 15.27589361    19

Track STARLINK-32670 in real time with AllMySat

Download on the App Store